Regional Weather Roundup
Issued by NWS

Home | Current Version | Previous Version | Graphics & Text | Print | Product List | Glossary Off
Versions: 1 2 3 4 5 6 7 8 9 10 11 12 13 14 15 16 17 18 19 20 21 22 23 24 25 26 27 28 29 30 31 32 33 34 35 36 37 38 39 40 41 42 43 44 45 46 47 48 49 50

000
ASUS43 KMKX 201300
RWRWI

WISCONSIN REGIONAL WEATHER ROUNDUP
NATIONAL WEATHER SERVICE MILWAUKEE/SULLIVAN WI
800 AM CDT MON OCT 20 2014

NOTE: "FAIR" INDICATES FEW OR NO CLOUDS BELOW 12,000 FEET WITH NO
SIGNIFICANT WEATHER AND/OR OBSTRUCTIONS TO VISIBILITY.

WIZ001-002-006>008-014>016-023>028-201400-
NORTHWEST WISCONSIN

CITY           SKY/WX    TMP DP  RH WIND       PRES   REMARKS
SUPERIOR ARPT  CLEAR     41  40  94 NW5       29.93R
ASHLAND        CLOUDY    48  42  80 NW7       29.91R
HAYWARD        CLOUDY    36  35  96 CALM      29.92R
SIREN          FOG       37  36  97 CALM      29.94R VSB 1
CUMBERLAND     CLEAR     43  39  87 NW7       29.93R
RICE LAKE      CLEAR     42  39  90 W6        29.93R
CHETEK         CLEAR     42  40  95 CALM      29.92R
LADYSMITH      CLEAR     41  39  95 NW5       29.91R
EAU CLAIRE     NOT AVBL
MENOMONIE      CLEAR     45  41  87 W6        29.93R
NEW RICHMOND   CLEAR     38  38  99 CALM      29.95R
OSCEOLA        CLEAR     35  35 100 CALM      29.98R FOG
$$

WIZ003>005-009-010-017-018-201400-
NORTH CENTRAL WISCONSIN

CITY           SKY/WX    TMP DP  RH WIND       PRES   REMARKS
MANITOWISH WTR CLOUDY    44  43  98 NW3       29.86R
ARBOR VITAE    CLOUDY    46  43  91 NW6       29.85S
WOODRUFF       CLOUDY    46  43  91 NW6       29.85S
RHINELANDER    LGT RAIN  44  43  96 N3        29.86R FOG
EAGLE RIVER    DRIZZLE   43  43 100 NW5       29.84S
LAND O LAKES   DRIZZLE   44  42  95 NW3       29.85R
PHILLIPS       CLOUDY    42  40  94 CALM      29.87R
TOMAHAWK       CLOUDY    42  40  94 CALM      29.86R
MEDFORD        CLOUDY    41  40  94 NW3       29.87S
MERRILL        CLOUDY    44  42  93 NW6       29.86R
$$

WIZ029-030-035-036-043>047-201400-
CENTRAL WISCONSIN

CITY           SKY/WX    TMP DP  RH WIND       PRES   REMARKS
WAUSAU         MOCLDY    43  41  93 NW6       29.86R
MOSINEE        NOT AVBL
MARSHFIELD     PTCLDY    44  40  85 NW8       29.88R
STEVENS POINT  CLEAR     42  40  91 NW5       29.86R
WAUPACA        PTCLDY    47  45  91 NW8       29.84R
WAUTOMA        NOT AVBL
WISC RAPIDS    CLEAR     44  41  89 NW7       29.89R
CAMP DOUGLAS   NOT AVBL
$$

WIZ011>013-019>022-031-037>040-048>050-201400-
NORTHEAST WISCONSIN

CITY           SKY/WX    TMP DP  RH WIND       PRES   REMARKS
ANTIGO         CLOUDY    42  42  97 NW7       29.84R
SHAWANO        CLOUDY    45  43  93 CALM      29.82S
OCONTO         CLOUDY    45  44  97 N3        29.80S
STURGEON BAY   MOCLDY    48  43  81 N6        29.81R
GREEN BAY      CLOUDY    48  44  86 NW8       29.82R
MANITOWOC      NOT AVBL
APPLETON       MOCLDY    45  43  93 NW12      29.82R
CLINTONVILLE   CLOUDY    45  43  93 NW7       29.83R
OSHKOSH        MOCLDY    48  44  86 NW9       29.82R
$$

WIZ032>034-041-042-053>061-201400-
SOUTHWEST WISCONSIN

CITY           SKY/WX    TMP DP  RH WIND       PRES   REMARKS
LA CROSSE      CLEAR     45  42  89 CALM      29.92R
SPARTA         CLEAR     45  40  82 NW5       29.91S
VIROQUA        CLEAR     45  41  86 NW7       29.91R
BOSCOBEL       CLEAR     43  41  93 CALM      29.92R FOG
PRAIRIE DU CHI CLEAR     46  40  82 NW5       29.92R
PLATTEVILLE    CLEAR     47  43  86 CALM      29.89R
$$

WIZ056-057-062-063-064-067-068-201400-
SOUTH CENTRAL WISCONSIN

CITY           SKY/WX    TMP DP  RH WIND       PRES   REMARKS
REEDSBURG      FAIR      47  42  82 NW9       29.88R
BARABOO/DELLS  FAIR      47  41  80 NW6       29.87R
LONE ROCK      NOT AVBL
MINERAL POINT  CLEAR     50  43  76 NW9       29.88R
MADISON        PTCLDY    50  43  77 NW8       29.85R
MIDDLETON      PTCLDY    50  43  77 NW5       29.86R
WATERTOWN      CLEAR     43  43 100 NW7       29.82R
MONROE         CLEAR     46  43  87 NW12G18   29.84R
JANESVILLE     PTCLDY    41  39  93 CALM      29.83R
$$

WIZ051-052-058>065-066-070>072-201400-
SOUTHEAST WISCONSIN

CITY           SKY/WX    TMP DP  RH WIND       PRES   REMARKS
MILWAUKEE      PTCLDY    49  43  80 NW7       29.79R
WAUKESHA       CLEAR     45  43  93 W12       29.81R
MILWAUKEE/TIMM NOT AVBL
RACINE         MOCLDY    48  42  80 W8        29.81R
BURLINGTON     PTCLDY    45  42  90 W6        29.80R
KENOSHA        MOCLDY    47  44  90 W7        29.80R
FOND DU LAC    MOCLDY    46  42  86 N7        29.83R
SHEBOYGAN      PTCLDY    48  43  82 NW13      29.80R
WEST BEND      CLEAR     45  41  87 W8        29.80R
JUNEAU         MOCLDY    44  43  94 NW6       29.84R
$$

LSZ147-162-201400-
LAKE SUPERIOR

STATION/POSITION TIME  TEMP    WIND        PRES    WAVE
                       AIR SEA DIR/SP/G            HT/PER
                 (UTC) (F)     (DEG/KT/KT) (MB)    (FT/S)
W MID LAKE BUOY  1150   47 46  320/  4/  6 1011.1R   1
DEVILS ISLAND    1200   50     320/ 12/ 13 1012.1R
PORT WING        1200   49     280/  8/ 11 1012.5
SAXON HARBOR     1200   48        CALM     1011.5R
$$

LMZ867-665-643>646-201400-
LAKE MICHIGAN

STATION/POSITION TIME  TEMP    WIND        PRES    WAVE
                       AIR SEA DIR/SP/G            HT/PER
                 (UTC) (F)     (DEG/KT/KT) (MB)    (FT/S)
CHAMBERS ISLAND  1200   50     340/ 10/ 12 1008.8R
N MID LAKE BUOY  1150   50 52  330/ 14/ 16 1007.7R   4/ 6
NORTHPORT PIER   1200   51     350/ 13/ 15 1008.5R
KEWAUNEE LAKESHO 1200   46     300/  7/ 10 1007.5R
SHEBOYGAN LAKESH 1200   49 51  280/ 12/ 13 1008.5R
PORT WASHINGTON  1240   49     300/ 10/ 15 1009.5R
ATWATER BUOY     1200   51     250/ 14/ 16 1009.1R
MILWAUKEE LAKESH 1200   49     290/ 11/ 13   N/A
S MID LAKE BUOY  1150   54 55  250/ 12/ 14 1008.7R   4/ 6
KENOSHA   LAKESH 1200   49     260/ 12/ 15 1008.5R
$$

TC  - TEMPERATURE IN CELSIUS
VSB - VISIBILITY IN STATUTE MILES
WCI - WIND CHILL INDEX
HX  - HEAT INDEX




USA.gov is the U.S. government's official web portal to all federal, state and local government web resources and services.